Location: Vancouver
(49.2500°N, 123.1330°W)
Time: 18:50:09
(UTC-07:00)

Daily predictions for brighter satellites

Satellite Brightness Start Highest point End
(mag) Time Altitude Azimuth Time Altitude Azimuth Time Altitude Azimuth
Cosmos 909 Rocket 4.4 21:25:31 10° SSW 21:32:11 79° ESE 21:40:27 10° NE
Cosmos 1954 Rocket 4.1 21:28:15 10° NNW 21:33:27 68° ENE 21:38:39 10° SSE
CENTAUR R/B 4.2 21:27:31 10° NW 21:34:39 40° WSW 21:42:11 10° S
COS B Rocket 3.6 21:30:31 10° N 21:34:39 50° E 21:38:24 10° SSE
Cosmos 2084 4.4 21:32:44 10° S 21:35:39 21° ESE 21:38:35 10° ENE
Cosmos 2056 Rocket 3.5 21:30:52 10° SSW 21:36:01 85° ESE 21:41:10 10° NNE
Cosmos 1939 Rocket 3.0 21:33:02 10° S 21:36:55 77° WSW 21:40:53 10° NNW
SL-27 R/B 3.7 21:34:00 10° NW 21:37:29 41° WSW 21:40:54 10° S
Cosmos 1371 Rocket 4.4 21:33:08 10° SSW 21:38:26 72° WNW 21:43:44 10° NNE
ISS -1.5 21:38:16 10° SSE 21:39:52 13° SE 21:41:29 10° ESE
USA 245 4.1 21:38:43 10° SE 21:41:51 36° ENE 21:45:46 10° N
Cosmos 1238 Rocket 2.5 21:40:51 10° N 21:43:56 54° E 21:47:24 10° SSE
Cosmos 2154 Rocket 4.0 21:41:39 10° S 21:47:47 65° E 21:53:55 10° NNE
SL-8 R/B 3.8 21:45:34 10° WSW 21:50:17 57° SSE 21:55:01 10° E
COSMOS 2487 2.5 21:47:42 10° NNW 21:51:21 79° ENE 21:54:57 10° SSE
Terra 3.3 21:48:26 10° ESE 21:52:07 23° ENE 21:55:49 10° N
Nimbus 7 Rocket 4.4 21:46:24 10° NNE 21:52:19 67° ESE 21:58:15 10° S
SPOT 5 3.2 21:47:05 10° SSE 21:52:24 89° E 21:57:48 10° NNW
USA 229 DEB 4.2 21:46:01 10° NW 21:53:00 57° NE 22:00:02 10° ESE
USA 229 4.2 21:46:07 10° NW 21:53:06 57° NE 22:00:08 10° ESE
MetOp-B 4.2 21:49:42 10° SSE 21:55:02 80° ENE 22:00:26 10° NNW
NOSS 2-2 (D) 3.9 21:52:45 10° SW 21:57:01 80° NW 22:02:14 10° NE
H-2A R/B 2.7 21:54:38 10° S 21:58:52 55° WSW 22:03:01 10° NNW
Cosmos 1023 Rocket 4.5 21:55:13 10° NNW 22:00:21 77° ENE 22:05:24 10° SSE
Cosmos 489 Rocket 4.5 21:55:50 10° NNW 22:02:05 85° ENE 22:08:18 10° SSE
SL-08 RB Rocket 4.1 22:01:25 11° SE 22:05:42 50° ENE 22:10:14 10° N
ATLAS 5 CENTAUR R/B 4.3 22:03:27 10° WNW 22:08:06 23° WSW 22:12:57 10° SSW
Envisat 3.9 22:05:48 10° S 22:10:42 48° W 22:15:38 10° NNW
ARGOS 3.2 22:05:28 10° SSE 22:10:46 69° ENE 22:16:07 10° N
NOSS 2-2 (C) 4.3 22:07:32 10° SW 22:11:48 63° NW 22:17:02 10° NE
YAOGAN 6 2.9 22:15:53 10° S 22:19:22 64° W 22:22:53 10° NNW
Cosmos 1825 2.3 22:16:23 10° SSW 22:20:12 79° WNW 22:24:03 10° N
Cosmos 1408 2.7 22:17:37 10° SSW 22:21:17 76° W 22:24:57 10° N
Cosmos 1420 Rocket 4.2 22:16:30 10° S 22:21:35 52° ESE 22:26:39 10° NNE
Cosmos 1242 Rocket 2.6 22:18:46 10° NNW 22:22:26 83° W 22:25:39 13° S
Okean 2 Rocket 3.0 22:21:06 10° S 22:25:31 77° E 22:29:57 10° NNE
Cosmos 614 Rocket 3.9 22:21:06 10° NNW 22:26:15 84° ENE 22:30:21 16° SSE
Cosmos 1833 Rocket 2.9 22:21:43 10° NNW 22:27:18 60° ENE 22:31:40 17° SE
H-2A R/B 2.4 22:24:55 15° SE 22:29:12 55° ENE 22:34:22 10° N
Cosmos 2278 Rocket 2.2 22:25:19 10° SSW 22:30:59 78° ESE 22:36:41 10° NNE
Okean 3 4.4 22:28:04 10° NNW 22:32:12 47° W 22:36:17 10° SSW
AVUM R/B 4.2 22:30:11 10° NNW 22:33:33 41° NE 22:35:39 19° ESE
Cosmos 1140 Rocket 3.9 22:29:08 10° NNW 22:34:11 58° WSW 22:38:44 13° S
Meteor 1-14 Rocket 4.3 22:28:42 10° S 22:34:15 59° E 22:39:45 10° NNE
Cosmos 1844 4.1 22:29:39 10° SW 22:35:25 72° WNW 22:41:16 10° NNE
Cosmos 1844 Rocket 3.5 22:30:56 10° SW 22:36:28 55° NW 22:42:01 10° NNE
Cosmos 1812 3.6 22:33:10 10° N 22:36:45 34° ENE 22:38:47 20° SE
Cosmos 1862 4.5 22:33:50 10° SSW 22:37:45 45° WNW 22:41:43 10° N
Cosmos 1452 Rocket 3.9 22:33:51 10° SSW 22:39:05 66° WNW 22:44:23 10° NNE
CZ-4 R/B 3.8 22:36:27 10° NNE 22:41:08 63° ESE 22:45:17 13° S
Cosmos 1782 Rocket 4.1 22:37:19 10° SSW 22:41:45 63° WNW 22:46:13 10° N
Cosmos 2218 Rocket 4.1 22:37:01 10° S 22:43:22 69° E 22:49:44 10° NNE
DELTA 2 DEB (DPAF) 4.1 22:40:47 19° SSE 22:43:59 80° ENE 22:48:29 10° NNW
SPOT 1/Viking Rocket 4.1 22:39:37 11° S 22:44:35 58° W 22:49:45 10° NNW
CZ-4B R/B 3.4 22:41:22 10° NNE 22:46:24 90° SE 22:51:16 10° SSW
Cosmos 2082 Rocket 2.2 22:41:00 10° NNW 22:46:45 84° WSW 22:50:49 20° SSE
Cosmos 1184 Rocket 4.2 22:47:07 10° SW 22:50:17 40° WNW 22:53:29 10° N
Cosmos 1975 Rocket 4.4 22:48:52 10° NNW 22:52:49 35° W 22:56:44 10° SSW
Cosmos 1727 Rocket 4.0 22:48:20 10° N 22:54:33 81° E 22:59:08 19° SSE
USA 234 3.8 22:49:28 10° ENE 22:55:22 35° SE 23:01:13 10° SSW
SAR-Lupe-2 4.1 22:54:18 27° SE 22:55:52 45° ENE 22:59:18 10° N
CARTOSAT-1 3.5 22:55:56 24° SSE 22:58:33 83° ENE 23:02:53 10° NNW
Intercosmos 25 3.8 22:57:13 10° SSW 23:00:35 47° WNW 23:03:41 10° N
CZ-4C R/B 3.5 22:58:14 23° S 23:00:38 71° WSW 23:04:46 10° NNW
Cosmos 1959 Rocket 4.4 22:55:18 10° S 23:01:23 90° WSW 23:07:32 10° N
Cosmos 2297 3.7 22:59:20 10° SSW 23:05:02 75° ESE 23:10:47 10° NNE
Cosmos 1536 Rocket 3.7 23:01:16 10° NNW 23:05:47 77° W 23:08:32 23° S
Gbstr 26 Del rocket 3.1 23:01:43 10° WNW 23:06:56 88° SSW 23:09:36 23° ESE
Landsat 7 4.3 23:10:33 19° S 23:13:48 55° W 23:18:30 10° NNW
Cosmos 2084 4.0 23:11:07 10° WSW 23:14:52 52° NW 23:18:41 10° NE
ISS -3.4 23:12:34 10° SW 23:15:47 61° SSE 23:19:00 10° ENE
Meteor 2-19 Rocket 4.4 23:11:38 19° S 23:16:11 76° E 23:22:18 10° NNE
Cosmos 1536 4.5 23:15:48 18° E 23:16:18 19° E 23:19:06 10° NE
Cosmos 1400 Rocket 4.3 23:16:25 21° ESE 23:17:01 21° E 23:20:11 10° NE
DMSP B5D2-2 4.0 23:15:01 10° NNE 23:20:16 75° ESE 23:23:41 22° S
Terra 2.3 23:26:48 24° S 23:29:32 54° W 23:34:14 10° NNW
Cosmos 2151 Rocket 4.3 23:27:44 14° SSW 23:31:25 52° WNW 23:35:52 10° N
SL-8 R/B 3.6 23:27:54 10° W 23:32:44 83° S 23:37:05 13° E
Cosmos 1821 Rocket 4.4 23:31:19 28° SSE 23:34:17 47° E 23:40:12 10° NNE
Okean 1 3.6 23:32:25 10° NNW 23:36:26 62° W 23:38:04 33° SSW
Spot 4 4.2 23:34:44 28° S 23:37:14 61° WSW 23:42:04 10° NNW
Iridium 4 Rocket 4.1 23:32:02 10° N 23:37:47 57° E 23:40:33 31° SSE
BREEZE-M DEB (TANK) 4.1 23:34:08 10° W 23:38:01 87° N 23:52:07 10° E
CZ-4B R/B 3.6 23:38:33 14° ENE 23:39:07 14° ENE 23:40:52 10° NNE
Cosmos 2369 Rocket 3.4 23:39:18 22° ESE 23:40:07 23° ESE 23:44:27 10° NE
Cosmos 1331 Rocket 3.9 23:40:23 28° S 23:43:05 72° ESE 23:48:15 10° NNE
USA 229 DEB 4.4 23:37:14 10° NW 23:43:54 45° WSW 23:47:41 25° S
USA 229 4.4 23:37:20 10° NW 23:44:01 45° WSW 23:47:47 25° S
Cosmos 2123 Rocket 4.3 23:40:15 10° N 23:46:25 54° ENE 23:49:26 30° SE
Cosmos 1025 Rocket 3.2 23:43:21 10° N 23:47:44 63° ENE 23:49:03 42° SE
Lacrosse 5 3.0 23:48:57 26° ESE 23:48:57 26° ESE 23:52:22 10° ENE
ASTEX 1 3.5 23:43:31 10° N 23:48:29 77° W 23:51:02 29° SSW
Cosmos 1934 Rocket 4.3 23:46:17 31° SSE 23:48:51 50° E 23:54:39 10° NNE
Cosmos 1110 Rocket 3.9 23:45:38 24° SSW 23:48:54 89° SE 23:54:09 10° NNE
ALOS 2 3.7 23:47:43 26° ESE 23:49:16 34° ENE 23:53:13 10° N
Meteor 1-20 Rocket 4.4 23:46:37 20° SSW 23:50:35 68° WNW 23:56:07 10° N
Cosmos 1455 Rocket 4.5 23:51:26 22° E 23:51:59 23° E 23:55:24 10° NE
